Regional Weather Roundup
Issued by NWS Goodland, KS

Home | Current Version | Previous Version | Graphics & Text | Print | Product List | Glossary On
Versions: 1 2 3 4 5 6 7 8 9 10 11 12 13 14 15 16 17 18 19 20 21 22 23 24 25 26 27 28 29 30 31 32 33 34 35 36 37 38 39 40 41 42 43 44 45 46 47 48 49 50
510
ASUS43 KGLD 261359
RWRGLD

GOODLAND FORECAST AREA HOURLY WEATHER ROUNDUP
NATIONAL WEATHER SERVICE GOODLAND KS
800 AM MDT TUE SEP 26 2017

...OFFICIAL OBSERVATIONS...

CITY           SKY/WX    TMP DP  RH WIND       PRES   REMARKS
GOODLAND KS    CLOUDY    46  45  96 N5        30.18S
HILL CITY KS   CLOUDY    50  48  93 N13       30.18R
IMPERIAL NEB   SUNNY     48  43  82 NW3       30.19S
MCCOOK NEB     CLOUDY    48  46  93 W5        30.19R
AKRON CO       SUNNY     44  41  89 SW5       30.19R
BURLINGTON CO  CLOUDY    46  45  96 CALM      30.20R
LIMON CO         N/A    N/A N/A N/A MISG      30.21R
$$

...UNOFFICIAL OBSERVATIONS...

CITY           SKY/WX    TMP DP  RH WIND       PRES   REMARKS
LENORA KS        N/A     48  32  54 MISG        N/A
NORTON KS      PTSUNNY   48  43  81 NW10      30.16S
SHARON SPRINGS   N/A     46  45  96 N5          N/A
KIT CARSON CO    N/A     46  43  89 CALM        N/A
YUMA CO        FAIR      41  41 100 W5        30.19S
$$




USA.gov is the U.S. government's official web portal to all federal, state and local government web resources and services.